Regional Weather Roundup
Issued by NWS

Home | Current Version | Previous Version | Text Only | Print | Product List | Glossary On
Versions: 1 2 3 4 5 6 7 8 9 10 11 12 13 14 15 16 17 18 19 20 21 22 23 24 25 26 27 28 29 30 31 32 33 34 35 36 37 38 39 40 41 42 43 44 45 46 47 48 49 50
000
ASUS43 KLSX 181107
RWRMO

WEATHER SUMMARY FOR MISSOURI
NATIONAL WEATHER SERVICE SPRINGFIELD MO
600 AM CDT FRI AUG 18 2017

NOTE: "FAIR" INDICATES FEW OR NO CLOUDS BELOW 12,000 FEET WITH NO
       SIGNIFICANT WEATHER AND/OR OBSTRUCTIONS TO VISIBILITY.
       CURRENT SKY AND/OR WEATHER CONDITIONS ARE NOT AVAILABLE FOR
       CHILLICOTHE AND FARMINGTON.

MOZ001>031-035>038-043-044-053-054-181200-
...NORTHERN AND WESTERN MISSOURI...

CITY           SKY/WX    TMP DP  RH WIND       PRES   REMARKS
KANSAS CTY INT MOCLDY    64  60  87 S5        29.95R
KANSAS C DTWN  MOCLDY    69  63  81 SW3       29.94R
LEE`S SUMMIT   CLEAR     66  60  81 SW8       29.96R
ST JOSEPH      MOCLDY    58  58 100 CALM      29.95R FOG
CHILLICOTHE      N/A     59  59 100 CALM      29.94S
KIRKSVILLE     PTCLDY    59  57  93 NW3       29.93R

$$
MOZ066>068-077>081-088>096-101>105-181200-
...SOUTHWEST MISSOURI...

CITY           SKY/WX    TMP DP  RH WIND       PRES   REMARKS
SPRINGFIELD    CLEAR     62  60  93 S5        30.00S
JOPLIN         CLEAR     66  64  93 S6        30.00R
BRANSON          N/A     66  66 100 CALM      30.03S

$$
MOZ032>034-039>042-045>050-055>058-069>072-181200-
...CENTRAL MISSOURI...

CITY           SKY/WX    TMP DP  RH WIND       PRES   REMARKS
COLUMBIA       CLEAR     62  61  96 SW5       29.95S
JEFFERSON CITY PTCLDY    62  62 100 CALM      29.95S
ROLLA          CLEAR     60  60 100 S5        29.98S
SEDALIA        PTCLDY    65  64  97 SW6       29.96F
WHITEMAN AFB   PTCLDY    62  62 100 SW6       29.94F
WARRENSBURG    PTCLDY    61  59  94 S5        29.95S
OSAGE BEACH    CLEAR     60  59  96 CALM      29.98S

$$
MOZ051-052-059>065-181200-
...EAST CENTRAL MISSOURI...

CITY           SKY/WX    TMP DP  RH WIND       PRES   REMARKS
ST LOUIS INTL  PTCLDY    67  63  87 W5        29.93S
SPIRIT OF STL  PTCLDY    64  64 100 CALM      29.93R
ST CHARLES     CLEAR     65  62  90 SW6       29.91S

$$
MOZ072>076-082>087-097>100-106>115-181200-
...SOUTH CENTRAL AND SOUTHEAST MISSOURI...

CITY           SKY/WX    TMP DP  RH WIND       PRES   REMARKS
CAPE GIRARDEAU CLEAR     61  61 100 W3        29.95R
FARMINGTON     CLEAR     66  61  84 CALM      29.98R
POPLAR BLUFF   CLEAR     65  65 100 CALM      29.96R
WEST PLAINS    CLEAR     63  61  93 CALM      30.02R

$$



USA.gov is the U.S. government's official web portal to all federal, state and local government web resources and services.